^^

..:: Storico WU ::..




Lo storico viene creato da WUnderground con i dati che la stazione Meteomincio invia al loro server. L' aggiornamento viene fatto ogni 5 minuti circa, tuttavia possono esserci intervalli pił ampi a causa di errori, interruzioni di servizio o problemi nell' invio tramite FTP.


Storico stazione MeteoMincio
Giorno Sommario per Giugno 10, 2022 Unità:  Inglese    Metrico   Entrambi
Giorno Settimana Mese Anno
  Max: Min: Media:
Temperatura: 86 °F 64.4 °F 75.9 °F
Dew Point: 62.6 °F 51.8 °F 56.5 °F
Umidità: 78% 33% 53%
Velocità vento: 7.5mph 0mph 3.9mph
Raffica: 11.8mph - -
Direzione- - SW
Pressione: 30 in 29.9 in -
Precipitazioni: 0.01 in    
 
 
Tabulato Dati per Giugno 10, 2022
Ora Temperatura Dew Point Pressione Direzione Velocità vento Raffica Umidità Intensità pioggia (oraria) Info solare Situazione
00:04 66.2 °F 59 °F 29.9 in NW 3.7 mph 6.2 mph 78% 0.02 in 0.00 W/m2 unknown
00:09 66.2 °F 59 °F 29.9 in NW 3.1 mph 5 mph 78% 0.02 in 0.00 W/m2 unknown
00:14 66.2 °F 59 °F 29.9 in NW 3.7 mph 6.2 mph 78% 0.02 in 0.00 W/m2 unknown
00:19 66.2 °F 59 °F 29.9 in NW 3.7 mph 6.2 mph 78% 0.01 in 0.00 W/m2 unknown
00:24 66.2 °F 59 °F 29.9 in WNW 3.1 mph 6.2 mph 77% 0.01 in 0.00 W/m2 unknown
00:29 66.2 °F 59 °F 29.9 in WNW 3.7 mph 6.2 mph 76% 0.01 in 0.00 W/m2 unknown
00:34 66.2 °F 59 °F 29.9 in WNW 3.1 mph 6.2 mph 77% 0.01 in 0.00 W/m2 unknown
00:39 66.2 °F 59 °F 29.9 in WNW 3.1 mph 5 mph 78% 0.01 in 0.00 W/m2 unknown
00:44 66.2 °F 59 °F 29.9 in WNW 2.5 mph 3.7 mph 78% 0.01 in 0.00 W/m2 unknown
00:49 66.2 °F 59 °F 29.9 in WNW 3.1 mph 5 mph 77% 0.01 in 0.00 W/m2 unknown
00:54 66.2 °F 59 °F 29.9 in WNW 3.7 mph 5 mph 77% 0.01 in 0.00 W/m2 unknown
00:59 66.2 °F 59 °F 29.9 in WNW 3.7 mph 5 mph 77% 0.01 in 0.00 W/m2 unknown
01:04 66.2 °F 57.2 °F 29.9 in WNW 4.3 mph 6.2 mph 76% 0 in 0.00 W/m2 unknown
01:09 66.2 °F 57.2 °F 29.9 in WNW 5 mph 6.2 mph 75% 0 in 0.00 W/m2 unknown
01:14 66.2 °F 57.2 °F 29.9 in WNW 5 mph 6.2 mph 74% 0 in 0.00 W/m2 unknown
01:19 66.2 °F 57.2 °F 29.9 in WNW 5 mph 6.2 mph 74% 0 in 0.00 W/m2 unknown
01:24 66.2 °F 57.2 °F 29.9 in WNW 5 mph 6.2 mph 73% 0 in 0.00 W/m2 unknown
01:29 66.2 °F 57.2 °F 29.9 in WNW 5 mph 6.2 mph 72% 0 in 0.00 W/m2 unknown
01:34 66.2 °F 57.2 °F 29.9 in WNW 5 mph 6.8 mph 71% 0.01 in 0.00 W/m2 unknown
01:38 68 °F 57.2 °F 29.9 in WNW 5 mph 6.8 mph 70% 0.01 in 0.00 W/m2 unknown
01:44 68 °F 57.2 °F 29.9 in WNW 5 mph 6.8 mph 69% 0.01 in 0.00 W/m2 unknown
01:49 68 °F 57.2 °F 29.9 in WNW 5 mph 6.2 mph 68% 0.01 in 0.00 W/m2 unknown
01:53 68 °F 57.2 °F 29.9 in WNW 5 mph 6.8 mph 68% 0.01 in 0.00 W/m2 unknown
01:59 68 °F 55.4 °F 29.9 in NW 5 mph 6.8 mph 67% 0.01 in 0.00 W/m2 unknown
02:04 68 °F 55.4 °F 29.9 in WNW 5 mph 6.8 mph 64% 0.01 in 0.00 W/m2 unknown
02:09 68 °F 55.4 °F 29.9 in WNW 5 mph 8.1 mph 62% 0.01 in 0.00 W/m2 unknown
02:14 68 °F 55.4 °F 29.9 in WNW 5 mph 8.1 mph 62% 0.01 in 0.00 W/m2 unknown
02:18 68 °F 55.4 °F 29.9 in WNW 3.7 mph 8.1 mph 63% 0.01 in 0.00 W/m2 unknown
02:24 68 °F 55.4 °F 29.9 in WNW 5 mph 8.1 mph 64% 0.01 in 0.00 W/m2 unknown
02:29 68 °F 55.4 °F 29.9 in WNW 5.6 mph 8.1 mph 64% 0.01 in 0.00 W/m2 unknown
02:34 68 °F 55.4 °F 29.9 in WNW 6.2 mph 8.1 mph 64% 0.01 in 0.00 W/m2 unknown
02:39 68 °F 55.4 °F 29.9 in WNW 6.8 mph 9.3 mph 64% 0.01 in 0.00 W/m2 unknown
02:44 68 °F 55.4 °F 29.9 in NW 6.8 mph 9.3 mph 63% 0.01 in 0.00 W/m2 unknown
02:49 68 °F 55.4 °F 29.9 in NW 6.2 mph 8.7 mph 64% 0.01 in 0.00 W/m2 unknown
02:54 68 °F 55.4 °F 29.9 in NW 5.6 mph 9.3 mph 63% 0.01 in 0.00 W/m2 unknown
02:59 68 °F 53.6 °F 29.9 in NW 6.2 mph 10.6 mph 61% 0 in 0.00 W/m2 unknown
03:04 68 °F 53.6 °F 29.9 in NW 6.2 mph 10.6 mph 58% 0 in 0.00 W/m2 unknown
03:09 68 °F 53.6 °F 29.9 in NW 6.2 mph 11.2 mph 57% 0 in 0.00 W/m2 unknown
03:14 68 °F 53.6 °F 29.9 in WNW 6.2 mph 11.8 mph 57% 0 in 0.00 W/m2 unknown
03:19 68 °F 53.6 °F 29.9 in NW 7.5 mph 11.8 mph 57% 0 in 0.00 W/m2 unknown
03:23 68 °F 53.6 °F 29.9 in WNW 7.5 mph 11.8 mph 58% 0 in 0.00 W/m2 unknown
03:29 68 °F 53.6 °F 29.9 in WNW 7.5 mph 11.8 mph 58% 0 in 0.00 W/m2 unknown
03:34 68 °F 53.6 °F 29.9 in WNW 6.8 mph 8.1 mph 59% 0 in 0.00 W/m2 unknown
03:39 68 °F 53.6 °F 29.9 in WNW 6.2 mph 8.1 mph 61% 0 in 0.00 W/m2 unknown
03:44 68 °F 53.6 °F 29.9 in WNW 6.2 mph 8.1 mph 61% 0 in 0.00 W/m2 unknown
03:49 68 °F 53.6 °F 29.9 in WNW 6.2 mph 8.1 mph 61% 0 in 0.00 W/m2 unknown
03:54 68 °F 53.6 °F 29.9 in WNW 6.2 mph 8.1 mph 61% 0 in 0.00 W/m2 unknown
03:59 68 °F 53.6 °F 29.9 in WNW 5 mph 6.2 mph 61% 0 in 0.00 W/m2 unknown
04:04 68 °F 53.6 °F 29.9 in WNW 4.3 mph 6.2 mph 60% 0 in 0.00 W/m2 unknown
04:06 68 °F 53.6 °F 29.9 in West 5 mph 6.2 mph 60% 0 in 0.00 W/m2 unknown
04:12 68 °F 51.8 °F 29.9 in WNW 4.3 mph 6.2 mph 60% 0 in 0.00 W/m2 unknown
04:18 66.2 °F 51.8 °F 29.9 in West 5 mph 8.1 mph 60% 0 in 0.00 W/m2 unknown
04:23 66.2 °F 51.8 °F 29.9 in West 5.6 mph 8.1 mph 59% 0 in 0.00 W/m2 unknown
04:28 66.2 °F 51.8 °F 29.9 in West 5 mph 8.1 mph 59% 0 in 0.00 W/m2 unknown
04:33 66.2 °F 51.8 °F 29.9 in WNW 5 mph 6.8 mph 59% 0 in 0.00 W/m2 unknown
04:38 66.2 °F 51.8 °F 29.9 in WNW 5 mph 6.8 mph 59% 0 in 0.00 W/m2 unknown
04:44 66.2 °F 51.8 °F 29.9 in WNW 5 mph 5 mph 60% 0 in 0.00 W/m2 unknown
04:48 66.2 °F 51.8 °F 29.9 in WNW 5 mph 5 mph 60% 0 in 0.00 W/m2 unknown
04:53 66.2 °F 51.8 °F 29.9 in WNW 3.1 mph 3.7 mph 61% 0 in 0.00 W/m2 unknown
04:59 66.2 °F 53.6 °F 29.9 in WNW 3.7 mph 5 mph 62% 0 in 0.00 W/m2 unknown
05:03 66.2 °F 51.8 °F 29.9 in WNW 3.7 mph 5 mph 62% 0 in 0.00 W/m2 unknown
05:09 66.2 °F 53.6 °F 29.9 in WNW 3.1 mph 3.7 mph 63% 0 in 0.00 W/m2 unknown
05:13 66.2 °F 53.6 °F 29.9 in WNW 3.1 mph 3.7 mph 64% 0 in 0.00 W/m2 unknown
05:19 66.2 °F 53.6 °F 29.9 in West 3.1 mph 3.7 mph 66% 0 in 0.00 W/m2 unknown
05:24 66.2 °F 53.6 °F 29.9 in West 3.1 mph 5 mph 68% 0 in 0.00 W/m2 unknown
05:29 64.4 °F 53.6 °F 29.9 in West 3.1 mph 5 mph 69% 0 in 0.00 W/m2 unknown
05:34 64.4 °F 53.6 °F 29.9 in West 3.1 mph 5 mph 69% 0 in 0.00 W/m2 unknown
05:39 64.4 °F 53.6 °F 29.9 in WNW 3.7 mph 5 mph 69% 0 in 5.00 W/m2 unknown
05:44 64.4 °F 53.6 °F 29.9 in WNW 4.3 mph 6.2 mph 69% 0 in 9.00 W/m2 unknown
05:49 64.4 °F 55.4 °F 29.9 in West 3.7 mph 6.2 mph 70% 0 in 14.00 W/m2 unknown
05:54 64.4 °F 55.4 °F 29.9 in West 3.1 mph 6.2 mph 72% 0 in 18.00 W/m2 unknown
05:59 64.4 °F 55.4 °F 29.9 in WNW 3.1 mph 3.7 mph 72% 0 in 25.00 W/m2 unknown
06:00 64.4 °F 55.4 °F 29.9 in West 1.9 mph 3.1 mph 72% 0 in 25.00 W/m2 unknown
06:09 64.4 °F 55.4 °F 29.9 in WNW 2.5 mph 3.7 mph 73% 0 in 32.00 W/m2 unknown
06:14 64.4 °F 55.4 °F 29.9 in WNW 3.1 mph 5 mph 73% 0 in 33.00 W/m2 unknown
06:19 64.4 °F 55.4 °F 29.9 in WNW 3.7 mph 5 mph 73% 0 in 33.00 W/m2 unknown
06:24 64.4 °F 55.4 °F 29.9 in West 3.1 mph 5 mph 74% 0 in 39.00 W/m2 unknown
06:29 64.4 °F 57.2 °F 29.9 in West 3.1 mph 5 mph 75% 0 in 42.00 W/m2 unknown
06:34 64.4 °F 57.2 °F 29.9 in West 3.1 mph 5 mph 76% 0 in 51.00 W/m2 unknown
06:39 64.4 °F 57.2 °F 29.9 in West 2.5 mph 3.7 mph 76% 0 in 62.00 W/m2 unknown
06:44 64.4 °F 57.2 °F 29.9 in West 1.9 mph 3.1 mph 75% 0 in 74.00 W/m2 unknown
06:49 66.2 °F 57.2 °F 29.9 in West 1.9 mph 3.7 mph 75% 0 in 88.00 W/m2 unknown
06:54 66.2 °F 57.2 °F 29.9 in West 3.1 mph 3.7 mph 75% 0 in 102.00 W/m2 unknown
06:59 66.2 °F 59 °F 29.9 in West 3.1 mph 3.7 mph 77% 0 in 114.00 W/m2 unknown
07:04 66.2 °F 59 °F 29.9 in WSW 3.1 mph 3.7 mph 76% 0 in 132.00 W/m2 unknown
07:09 66.2 °F 59 °F 29.9 in WSW 3.7 mph 5 mph 77% 0 in 148.00 W/m2 unknown
07:13 66.2 °F 59 °F 29.9 in West 3.7 mph 5 mph 77% 0 in 160.00 W/m2 unknown
07:18 66.2 °F 59 °F 29.9 in West 3.7 mph 4.3 mph 76% 0 in 176.00 W/m2 unknown
07:24 68 °F 59 °F 29.9 in WNW 3.1 mph 5 mph 76% 0 in 195.00 W/m2 unknown
07:29 68 °F 59 °F 29.9 in West 3.1 mph 5 mph 72% 0 in 209.00 W/m2 unknown
07:34 69.8 °F 59 °F 29.9 in WNW 3.7 mph 5 mph 71% 0 in 220.00 W/m2 unknown
07:39 69.8 °F 59 °F 29.9 in WNW 3.1 mph 5 mph 68% 0 in 234.00 W/m2 unknown
07:44 69.8 °F 59 °F 29.9 in WNW 3.1 mph 5 mph 68% 0 in 248.00 W/m2 unknown
07:49 71.6 °F 59 °F 29.9 in West 2.5 mph 3.7 mph 67% 0 in 264.00 W/m2 unknown
07:54 71.6 °F 59 °F 29.9 in WNW 3.1 mph 5 mph 65% 0 in 278.00 W/m2 unknown
07:59 71.6 °F 59 °F 29.9 in West 3.1 mph 5 mph 64% 0 in 292.00 W/m2 unknown
08:04 71.6 °F 59 °F 29.9 in West 3.1 mph 5 mph 63% 0 in 308.00 W/m2 unknown
08:09 73.4 °F 59 °F 29.9 in West 3.1 mph 3.7 mph 62% 0 in 318.00 W/m2 unknown
08:14 73.4 °F 57.2 °F 29.9 in West 4.3 mph 5 mph 60% 0 in 334.00 W/m2 unknown
08:19 73.4 °F 57.2 °F 29.9 in West 4.3 mph 5 mph 59% 0 in 348.00 W/m2 unknown
08:24 73.4 °F 59 °F 29.9 in West 3.1 mph 5 mph 59% 0 in 364.00 W/m2 unknown
08:29 75.2 °F 59 °F 29.9 in WNW 3.7 mph 5 mph 59% 0 in 378.00 W/m2 unknown
08:34 75.2 °F 57.2 °F 29.9 in WNW 3.7 mph 5 mph 54% 0 in 392.00 W/m2 unknown
08:39 77 °F 57.2 °F 29.9 in WNW 3.1 mph 5 mph 51% 0 in 406.00 W/m2 unknown
08:44 77 °F 53.6 °F 29.9 in NW 3.7 mph 6.8 mph 47% 0 in 420.00 W/m2 unknown
08:49 77 °F 55.4 °F 29.9 in North 5 mph 6.8 mph 46% 0 in 434.00 W/m2 unknown
08:54 77 °F 57.2 °F 29.9 in North 4.3 mph 6.2 mph 49% 0 in 448.00 W/m2 unknown
08:59 77 °F 55.4 °F 29.9 in NW 3.7 mph 6.8 mph 47% 0 in 464.00 W/m2 unknown
09:04 78.8 °F 55.4 °F 29.9 in NW 5 mph 6.8 mph 45% 0 in 478.00 W/m2 unknown
09:09 78.8 °F 55.4 °F 29.9 in NW 5 mph 8.1 mph 46% 0 in 492.00 W/m2 unknown
09:14 78.8 °F 55.4 °F 29.9 in NW 5 mph 8.1 mph 46% 0 in 503.00 W/m2 unknown
09:19 78.8 °F 55.4 °F 29.9 in North 5.6 mph 8.1 mph 44% 0 in 517.00 W/m2 unknown
09:24 78.8 °F 55.4 °F 29.9 in NNW 5.6 mph 8.1 mph 45% 0 in 531.00 W/m2 unknown
09:29 78.8 °F 53.6 °F 29.9 in NNW 6.2 mph 6.8 mph 43% 0 in 545.00 W/m2 unknown
09:34 78.8 °F 55.4 °F 30 in NNW 5 mph 6.8 mph 44% 0 in 559.00 W/m2 unknown
09:39 78.8 °F 55.4 °F 30 in North 5 mph 6.2 mph 44% 0 in 571.00 W/m2 unknown
09:44 78.8 °F 57.2 °F 30 in NNW 3.7 mph 6.2 mph 47% 0 in 587.00 W/m2 unknown
09:49 78.8 °F 53.6 °F 30 in NW 3.7 mph 6.2 mph 42% 0 in 598.00 W/m2 unknown
09:54 78.8 °F 55.4 °F 30 in North 5 mph 8.1 mph 42% 0 in 610.00 W/m2 unknown
09:59 80.6 °F 55.4 °F 30 in NNW 5.6 mph 8.1 mph 42% 0 in 622.00 W/m2 unknown
10:04 80.6 °F 55.4 °F 30 in NNW 5.6 mph 8.1 mph 42% 0 in 635.00 W/m2 unknown
10:09 80.6 °F 53.6 °F 30 in NW 5.6 mph 8.1 mph 40% 0 in 645.00 W/m2 unknown
10:14 80.6 °F 57.2 °F 30 in NW 5 mph 6.8 mph 47% 0 in 657.00 W/m2 unknown
10:19 80.6 °F 57.2 °F 30 in NNE 3.1 mph 6.2 mph 45% 0 in 671.00 W/m2 unknown
10:24 80.6 °F 57.2 °F 30 in NNW 3.1 mph 5 mph 43% 0 in 680.00 W/m2 unknown
10:29 80.6 °F 55.4 °F 30 in North 3.1 mph 6.2 mph 42% 0 in 693.00 W/m2 unknown
10:34 80.6 °F 55.4 °F 30 in NW 5 mph 8.1 mph 41% 0 in 700.00 W/m2 unknown
10:39 80.6 °F 55.4 °F 30 in NW 5 mph 8.1 mph 41% 0 in 710.00 W/m2 unknown
10:44 80.6 °F 55.4 °F 30 in NW 5 mph 8.1 mph 41% 0 in 719.00 W/m2 unknown
10:49 82.4 °F 57.2 °F 30 in NW 3.7 mph 6.2 mph 42% 0 in 733.00 W/m2 unknown
10:54 82.4 °F 55.4 °F 30 in North 5 mph 9.3 mph 40% 0 in 742.00 W/m2 unknown
10:59 82.4 °F 55.4 °F 30 in ENE 5 mph 9.3 mph 41% 0 in 752.00 W/m2 unknown
11:04 82.4 °F 57.2 °F 30 in NNE 5 mph 8.7 mph 42% 0 in 763.00 W/m2 unknown
11:09 82.4 °F 57.2 °F 30 in North 3.7 mph 6.2 mph 43% 0 in 772.00 W/m2 unknown
11:14 82.4 °F 55.4 °F 30 in NNE 3.7 mph 6.2 mph 41% 0 in 782.00 W/m2 unknown
11:19 82.4 °F 55.4 °F 30 in NE 3.1 mph 8.1 mph 39% 0 in 793.00 W/m2 unknown
11:24 82.4 °F 55.4 °F 30 in ENE 4.3 mph 8.1 mph 41% 0 in 798.00 W/m2 unknown
11:29 82.4 °F 55.4 °F 30 in ENE 5.6 mph 8.1 mph 39% 0 in 809.00 W/m2 unknown
11:33 82.4 °F 53.6 °F 30 in NNW 5 mph 6.8 mph 38% 0 in 816.00 W/m2 unknown
11:39 82.4 °F 57.2 °F 30 in ENE 3.1 mph 6.8 mph 42% 0 in 823.00 W/m2 unknown
11:44 82.4 °F 55.4 °F 30 in ENE 2.5 mph 5 mph 40% 0 in 828.00 W/m2 unknown
11:49 82.4 °F 57.2 °F 30 in NNE 3.1 mph 6.2 mph 41% 0 in 835.00 W/m2 unknown
11:54 84.2 °F 57.2 °F 30 in NE 3.7 mph 6.2 mph 42% 0 in 840.00 W/m2 unknown
11:59 82.4 °F 57.2 °F 30 in NNE 4.3 mph 6.8 mph 42% 0 in 849.00 W/m2 unknown
12:04 82.4 °F 57.2 °F 30 in East 3.1 mph 6.8 mph 40% 0 in 853.00 W/m2 unknown
12:09 82.4 °F 55.4 °F 30 in ENE 5 mph 6.8 mph 38% 0 in 858.00 W/m2 unknown
12:14 82.4 °F 59 °F 30 in NNE 5 mph 6.8 mph 43% 0 in 858.00 W/m2 unknown
12:19 82.4 °F 57.2 °F 30 in ESE 3.1 mph 8.7 mph 40% 0 in 861.00 W/m2 unknown
12:24 82.4 °F 57.2 °F 30 in ESE 5.6 mph 9.3 mph 40% 0 in 870.00 W/m2 unknown
12:29 82.4 °F 57.2 °F 30 in SE 6.2 mph 9.3 mph 41% 0 in 877.00 W/m2 unknown
12:34 82.4 °F 57.2 °F 30 in ESE 6.2 mph 8.1 mph 41% 0 in 881.00 W/m2 unknown
12:39 82.4 °F 57.2 °F 30 in SE 5.6 mph 8.1 mph 41% 0 in 884.00 W/m2 unknown
12:44 82.4 °F 55.4 °F 30 in East 6.2 mph 8.1 mph 39% 0 in 886.00 W/m2 unknown
12:49 82.4 °F 53.6 °F 30 in ESE 6.2 mph 9.9 mph 38% 0 in 895.00 W/m2 unknown
12:54 82.4 °F 53.6 °F 30 in SE 5 mph 8.1 mph 38% 0 in 895.00 W/m2 unknown
12:59 82.4 °F 55.4 °F 30 in South 6.2 mph 8.1 mph 40% 0 in 900.00 W/m2 unknown
13:04 82.4 °F 55.4 °F 30 in SE 6.2 mph 8.1 mph 39% 0 in 902.00 W/m2 unknown
13:09 84.2 °F 55.4 °F 30 in ESE 5 mph 8.1 mph 38% 0 in 905.00 W/m2 unknown
13:14 82.4 °F 55.4 °F 30 in SE 3.7 mph 6.8 mph 39% 0 in 916.00 W/m2 unknown
13:18 84.2 °F 55.4 °F 30 in SE 3.7 mph 6.8 mph 39% 0 in 925.00 W/m2 unknown
13:24 84.2 °F 57.2 °F 30 in ESE 3.7 mph 8.1 mph 41% 0 in 979.00 W/m2 unknown
13:29 84.2 °F 55.4 °F 30 in South 5 mph 8.1 mph 38% 0 in 1032.00 W/m2 unknown
13:34 84.2 °F 55.4 °F 30 in SSW 5 mph 8.1 mph 39% 0 in 981.00 W/m2 unknown
13:39 84.2 °F 55.4 °F 30 in ESE 4.3 mph 6.8 mph 38% 0 in 745.00 W/m2 unknown
13:44 84.2 °F 55.4 °F 30 in ESE 4.3 mph 6.8 mph 38% 0 in 580.00 W/m2 unknown
13:49 82.4 °F 53.6 °F 30 in ESE 5 mph 6.8 mph 38% 0 in 1088.00 W/m2 unknown
13:54 84.2 °F 55.4 °F 30 in East 5 mph 8.1 mph 40% 0 in 1097.00 W/m2 unknown
13:59 84.2 °F 57.2 °F 30 in SE 5 mph 8.1 mph 40% 0 in 1174.00 W/m2 unknown
14:04 84.2 °F 57.2 °F 30 in SE 5 mph 8.1 mph 40% 0 in 1174.00 W/m2 unknown
14:09 84.2 °F 57.2 °F 30 in SE 5.6 mph 8.1 mph 40% 0 in 457.00 W/m2 unknown
14:14 84.2 °F 55.4 °F 30 in SW 5 mph 8.1 mph 38% 0 in 782.00 W/m2 unknown
14:19 84.2 °F 57.2 °F 30 in SSE 4.3 mph 6.8 mph 39% 0 in 1088.00 W/m2 unknown
14:24 84.2 °F 55.4 °F 30 in SE 4.3 mph 6.8 mph 38% 0 in 1046.00 W/m2 unknown
14:29 84.2 °F 55.4 °F 30 in South 3.1 mph 6.8 mph 37% 0 in 1021.00 W/m2 unknown
14:34 84.2 °F 57.2 °F 30 in SE 3.7 mph 8.1 mph 40% 0 in 984.00 W/m2 unknown
14:39 86 °F 57.2 °F 30 in South 4.3 mph 8.1 mph 40% 0 in 949.00 W/m2 unknown
14:44 86 °F 57.2 °F 30 in South 5 mph 8.1 mph 40% 0 in 902.00 W/m2 unknown
14:49 86 °F 57.2 °F 30 in South 5 mph 6.2 mph 38% 0 in 888.00 W/m2 unknown
14:54 84.2 °F 55.4 °F 30 in SSW 3.7 mph 6.2 mph 37% 0 in 865.00 W/m2 unknown
14:59 84.2 °F 55.4 °F 30 in SSW 4.3 mph 8.1 mph 37% 0 in 861.00 W/m2 unknown
15:04 84.2 °F 55.4 °F 30 in South 6.2 mph 8.1 mph 37% 0 in 870.00 W/m2 unknown
15:09 84.2 °F 57.2 °F 30 in SW 6.2 mph 8.1 mph 40% 0 in 868.00 W/m2 unknown
15:14 84.2 °F 57.2 °F 30 in SSE 5 mph 8.1 mph 40% 0 in 840.00 W/m2 unknown
15:19 84.2 °F 55.4 °F 30 in East 3.7 mph 6.8 mph 38% 0 in 826.00 W/m2 unknown
15:24 84.2 °F 55.4 °F 30 in East 4.3 mph 6.8 mph 38% 0 in 870.00 W/m2 unknown
15:29 84.2 °F 55.4 °F 30 in ESE 5.6 mph 6.8 mph 38% 0 in 870.00 W/m2 unknown
15:34 84.2 °F 55.4 °F 30 in ESE 6.2 mph 9.9 mph 38% 0 in 810.00 W/m2 unknown
15:39 84.2 °F 57.2 °F 30 in ESE 6.2 mph 10.6 mph 39% 0 in 810.00 W/m2 unknown
15:44 84.2 °F 57.2 °F 30 in SE 6.2 mph 9.9 mph 39% 0 in 800.00 W/m2 unknown
15:49 84.2 °F 55.4 °F 30 in ESE 3.1 mph 5 mph 36% 0 in 788.00 W/m2 unknown
15:54 84.2 °F 53.6 °F 30 in NNE 1.9 mph 3.1 mph 36% 0 in 773.00 W/m2 unknown
15:59 84.2 °F 51.8 °F 30 in East 2.5 mph 5 mph 33% 0 in 761.00 W/m2 unknown
16:04 84.2 °F 53.6 °F 30 in ENE 2.5 mph 5 mph 34% 0 in 747.00 W/m2 unknown
16:09 84.2 °F 53.6 °F 30 in East 1.9 mph 3.7 mph 36% 0 in 738.00 W/m2 unknown
16:14 84.2 °F 55.4 °F 30 in ESE 1.9 mph 3.7 mph 36% 0 in 731.00 W/m2 unknown
16:19 84.2 °F 55.4 °F 30 in SE 3.7 mph 5 mph 37% 0 in 721.00 W/m2 unknown
16:24 86 °F 55.4 °F 30 in ESE 5 mph 6.8 mph 36% 0 in 708.00 W/m2 unknown
16:29 84.2 °F 53.6 °F 30 in SE 5 mph 8.7 mph 35% 0 in 696.00 W/m2 unknown
16:34 84.2 °F 55.4 °F 30 in ESE 5.6 mph 9.3 mph 37% 0 in 684.00 W/m2 unknown
16:39 84.2 °F 55.4 °F 30 in SE 5 mph 9.3 mph 36% 0 in 671.00 W/m2 unknown
16:44 84.2 °F 53.6 °F 30 in SE 5.6 mph 8.7 mph 35% 0 in 659.00 W/m2 unknown
16:49 84.2 °F 55.4 °F 30 in SE 5 mph 8.1 mph 37% 0 in 650.00 W/m2 unknown
16:54 84.2 °F 55.4 °F 30 in SE 3.1 mph 6.2 mph 37% 0 in 635.00 W/m2 unknown
16:59 86 °F 53.6 °F 30 in ESE 3.1 mph 6.8 mph 35% 0 in 626.00 W/m2 unknown
17:04 84.2 °F 53.6 °F 30 in ESE 4.3 mph 6.8 mph 34% 0 in 612.00 W/m2 unknown
17:09 84.2 °F 53.6 °F 30 in SSE 3.1 mph 6.8 mph 35% 0 in 598.00 W/m2 unknown
17:14 84.2 °F 53.6 °F 30 in WSW 2.5 mph 3.7 mph 35% 0 in 587.00 W/m2 unknown
17:19 84.2 °F 55.4 °F 30 in SE 3.7 mph 5 mph 37% 0 in 573.00 W/m2 unknown
17:24 84.2 °F 55.4 °F 30 in South 3.7 mph 5.6 mph 37% 0 in 561.00 W/m2 unknown
17:29 84.2 °F 55.4 °F 30 in SSE 3.7 mph 6.2 mph 37% 0 in 541.00 W/m2 unknown
17:34 84.2 °F 55.4 °F 30 in SE 3.1 mph 6.2 mph 36% 0 in 531.00 W/m2 unknown
17:39 84.2 °F 55.4 °F 30 in ESE 3.1 mph 5 mph 37% 0 in 517.00 W/m2 unknown
17:44 84.2 °F 55.4 °F 30 in South 3.7 mph 6.2 mph 37% 0 in 501.00 W/m2 unknown
17:49 84.2 °F 53.6 °F 30 in South 3.7 mph 6.2 mph 35% 0 in 487.00 W/m2 unknown
17:54 84.2 °F 53.6 °F 30 in SSE 3.1 mph 6.2 mph 35% 0 in 471.00 W/m2 unknown
17:59 84.2 °F 55.4 °F 30 in SSW 3.7 mph 6.2 mph 37% 0 in 461.00 W/m2 unknown
18:04 84.2 °F 55.4 °F 30 in South 5.6 mph 6.8 mph 36% 0 in 446.00 W/m2 unknown
18:09 84.2 °F 53.6 °F 30 in SSW 6.2 mph 6.8 mph 35% 0 in 431.00 W/m2 unknown
18:14 84.2 °F 53.6 °F 30 in SSW 5 mph 6.8 mph 36% 0 in 417.00 W/m2 unknown
18:19 84.2 °F 53.6 °F 30 in SW 1.9 mph 6.8 mph 36% 0 in 404.00 W/m2 unknown
18:24 84.2 °F 53.6 °F 30 in SSW 3.7 mph 5 mph 35% 0 in 390.00 W/m2 unknown
18:29 84.2 °F 55.4 °F 30 in SSW 5.6 mph 8.1 mph 37% 0 in 378.00 W/m2 unknown
18:34 84.2 °F 55.4 °F 30 in South 5.6 mph 8.1 mph 37% 0 in 362.00 W/m2 unknown
18:39 84.2 °F 55.4 °F 30 in SW 6.2 mph 8.1 mph 38% 0 in 346.00 W/m2 unknown
18:40 84.2 °F 55.4 °F 30 in SW 3.1 mph 6.8 mph 37% 0 in 334.00 W/m2 unknown
18:47 84.2 °F 53.6 °F 30 in SW 3.1 mph 3.7 mph 36% 0 in 313.00 W/m2 unknown
18:54 84.2 °F 55.4 °F 30 in SW 3.1 mph 5 mph 38% 0 in 308.00 W/m2 unknown
18:59 84.2 °F 55.4 °F 30 in SSW 3.7 mph 5 mph 38% 0 in 283.00 W/m2 unknown
19:04 84.2 °F 55.4 °F 30 in SSW 3.7 mph 5 mph 38% 0 in 271.00 W/m2 unknown
19:09 84.2 °F 55.4 °F 30 in SSW 4.3 mph 6.2 mph 39% 0 in 255.00 W/m2 unknown
19:13 84.2 °F 55.4 °F 30 in SSW 4.3 mph 6.2 mph 39% 0 in 239.00 W/m2 unknown
19:19 84.2 °F 55.4 °F 30 in SSW 4.3 mph 6.2 mph 39% 0 in 229.00 W/m2 unknown
19:24 84.2 °F 57.2 °F 30 in SW 5 mph 6.2 mph 40% 0 in 211.00 W/m2 unknown
19:29 84.2 °F 57.2 °F 30 in SW 3.1 mph 3.7 mph 40% 0 in 192.00 W/m2 unknown
19:34 84.2 °F 57.2 °F 30 in SW 2.5 mph 3.7 mph 40% 0 in 176.00 W/m2 unknown
19:39 84.2 °F 55.4 °F 30 in SW 2.5 mph 3.7 mph 39% 0 in 162.00 W/m2 unknown
19:44 84.2 °F 55.4 °F 30 in SSW 3.1 mph 5 mph 39% 0 in 146.00 W/m2 unknown
19:49 84.2 °F 55.4 °F 30 in SSW 3.7 mph 5 mph 38% 0 in 128.00 W/m2 unknown
19:54 82.4 °F 55.4 °F 30 in SSW 3.7 mph 5 mph 41% 0 in 105.00 W/m2 unknown
19:59 82.4 °F 57.2 °F 30 in SSW 3.7 mph 5 mph 42% 0 in 98.00 W/m2 unknown
20:04 82.4 °F 57.2 °F 30 in SSW 3.7 mph 5 mph 43% 0 in 83.00 W/m2 unknown
20:09 82.4 °F 57.2 °F 30 in SSW 3.7 mph 5 mph 44% 0 in 69.00 W/m2 unknown
20:14 82.4 °F 57.2 °F 30 in SSW 3.1 mph 5 mph 44% 0 in 25.00 W/m2 unknown
20:19 80.6 °F 57.2 °F 30 in SSW 3.1 mph 3.7 mph 45% 0 in 23.00 W/m2 unknown
20:24 80.6 °F 57.2 °F 30 in SSW 3.1 mph 3.7 mph 46% 0 in 21.00 W/m2 unknown
20:29 80.6 °F 59 °F 30 in SSW 3.1 mph 3.7 mph 47% 0 in 19.00 W/m2 unknown
20:34 80.6 °F 59 °F 30 in SSW 1.9 mph 3.7 mph 48% 0 in 16.00 W/m2 unknown
20:39 80.6 °F 59 °F 30 in SSW 1.9 mph 3.7 mph 51% 0 in 14.00 W/m2 unknown
20:44 78.8 °F 59 °F 30 in SSW 1.2 mph 3.1 mph 51% 0 in 12.00 W/m2 unknown
20:49 78.8 °F 59 °F 30 in SSW 1.2 mph 2.5 mph 52% 0 in 11.00 W/m2 unknown
20:54 78.8 °F 59 °F 30 in SSW 1.2 mph 2.5 mph 53% 0 in 9.00 W/m2 unknown
20:59 78.8 °F 59 °F 30 in SW 1.2 mph 2.5 mph 53% 0 in 7.00 W/m2 unknown
21:04 77 °F 59 °F 30 in SW 1.2 mph 2.5 mph 54% 0 in 5.00 W/m2 unknown
21:09 77 °F 59 °F 30 in SW 1.2 mph 2.5 mph 55% 0 in 0.00 W/m2 unknown
21:14 77 °F 59 °F 30 in SSW 1.2 mph 2.5 mph 55% 0 in 0.00 W/m2 unknown
21:19 77 °F 59 °F 30 in South 1.2 mph 2.5 mph 54% 0 in 0.00 W/m2 unknown
21:24 75.2 °F 59 °F 30 in South 1.2 mph 2.5 mph 56% 0 in 0.00 W/m2 unknown
21:29 75.2 °F 59 °F 30 in SE 1.2 mph 2.5 mph 57% 0 in 0.00 W/m2 unknown
21:34 75.2 °F 59 °F 30 in SSE 2.5 mph 3.7 mph 57% 0 in 0.00 W/m2 unknown
21:39 75.2 °F 59 °F 30 in SSE 2.5 mph 3.7 mph 58% 0 in 0.00 W/m2 unknown
21:44 75.2 °F 59 °F 30 in SSE 1.9 mph 3.7 mph 57% 0 in 0.00 W/m2 unknown
21:49 75.2 °F 57.2 °F 30 in South 1.9 mph 3.7 mph 55% 0 in 0.00 W/m2 unknown
21:54 75.2 °F 59 °F 30 in South 1.2 mph 3.1 mph 57% 0 in 0.00 W/m2 unknown
21:59 75.2 °F 59 °F 30 in SSW 1.2 mph 2.5 mph 58% 0 in 0.00 W/m2 unknown
22:04 75.2 °F 60.8 °F 30 in SW 1.2 mph 2.5 mph 61% 0 in 0.00 W/m2 unknown
22:09 73.4 °F 59 °F 30 in SW 1.2 mph 2.5 mph 61% 0 in 0.00 W/m2 unknown
22:14 73.4 °F 59 °F 30 in SW 1.2 mph 2.5 mph 61% 0 in 0.00 W/m2 unknown
22:19 73.4 °F 59 °F 30 in SW 1.2 mph 2.5 mph 62% 0 in 0.00 W/m2 unknown
22:24 73.4 °F 60.8 °F 30 in WSW 0.6 mph 2.5 mph 67% 0 in 0.00 W/m2 unknown
22:29 73.4 °F 60.8 °F 30 in WSW 1.2 mph 2.5 mph 67% 0 in 0.00 W/m2 unknown
22:34 71.6 °F 60.8 °F 30 in WSW 1.2 mph 2.5 mph 67% 0 in 0.00 W/m2 unknown
22:39 73.4 °F 60.8 °F 30 in WSW 1.2 mph 1.2 mph 67% 0 in 0.00 W/m2 unknown
22:44 73.4 °F 60.8 °F 30 in Calm     68% 0 in 0.00 W/m2 unknown
22:49 71.6 °F 60.8 °F 30 in Calm     68% 0 in 0.00 W/m2 unknown
22:54 71.6 °F 60.8 °F 30 in Calm     70% 0 in 0.00 W/m2 unknown
22:59 71.6 °F 60.8 °F 30 in Calm     71% 0 in 0.00 W/m2 unknown
23:04 71.6 °F 60.8 °F 30 in Calm     71% 0 in 0.00 W/m2 unknown
23:09 71.6 °F 60.8 °F 30 in Calm     72% 0 in 0.00 W/m2 unknown
23:14 71.6 °F 62.6 °F 30 in Calm     73% 0 in 0.00 W/m2 unknown
23:19 69.8 °F 62.6 °F 30 in Calm     74% 0 in 0.00 W/m2 unknown
23:24 69.8 °F 62.6 °F 30 in ESE 1.9 mph 5 mph 74% 0 in 0.00 W/m2 unknown
23:29 69.8 °F 60.8 °F 30 in East 2.5 mph 4.3 mph 74% 0 in 0.00 W/m2 unknown
23:34 68 °F 60.8 °F 30 in ESE 1.9 mph 5 mph 75% 0 in 0.00 W/m2 unknown
23:39 68 °F 60.8 °F 30 in ESE 1.9 mph 3.7 mph 76% 0 in 0.00 W/m2 unknown
23:44 68 °F 60.8 °F 30 in East 1.9 mph 3.7 mph 76% 0 in 0.00 W/m2 unknown
23:49 68 °F 60.8 °F 30 in East 1.9 mph 2.5 mph 76% 0 in 0.00 W/m2 unknown
23:54 68 °F 60.8 °F 30 in East 1.2 mph 2.5 mph 75% 0 in 0.00 W/m2 unknown
23:59 68 °F 60.8 °F 30 in East 1.2 mph 1.9 mph 75% 0 in 0.00 W/m2 unknown
Stazione Meteorologica MeteoMincio Rivalta s/M (MN)
Con i complimenti di Weather Underground - 4 mb



GLOSSARIO METEOROLOGICO
Temperatura
Esprime il grado d'agitazione delle molecole d'aria, impiegando una grandezza scalare chiamata appunto 'grado'. In Italia viene correntemente impiegato il 'grado centigrado', detto anche 'grado Celsius', il cui simbolo è: °C. Tale unità di misura è definita in modo che i valori 0°C e 100°C corrispondano rispettivamente al punto di fusione e al punto d'ebollizione dell'acqua a pressione atmosferica normale.
Share

Non seguire questo link o sarai bannato dal sito!